International Skating Union - Official Site

ISU Neo Senior World Cup Collalbo
January 21-22, 2017

Draw | Lap Times | Index | World Cup

Referee: Debora  SIGHEL  (ITA)
Starter: Yulia  MITROFANOVA  (RUS)
StartTime: EndTime: Air Temp: Ice Temp: Humidity:
16:43 17:00 0℃ -7.4℃ 64%
Result 3000m Ladies
Rankings as of Jan 21 2017 5:02PM
Rank: No.: Name: Nation: Time: Behind: Points:
1 69 Anastasiia  Zueva RUS RUS 4:27.88200m - 21.57 - (21.5)
600m - 55.71 - (34.1)
1000m - 1:30.37 - (34.6)
1400m - 2:05.08 - (34.7)
1800m - 2:39.96 - (34.8)
2200m - 3:14.91 - (34.9)
2600m - 3:50.66 - (35.7)
3000m - 4:27.88 - (37.2)
100
2 54 Inga Anne  Vasaasen NOR NOR 4:28.61200m - 21.53 - (21.5)
600m - 54.58 - (33.0)
1000m - 1:28.50 - (33.9)
1400m - 2:02.92 - (34.4)
1800m - 2:38.22 - (35.2)
2200m - 3:14.29 - (36.0)
2600m - 3:51.30 - (37.0)
3000m - 4:28.61 - (37.3)
0.73 80
3 32 Michelle  Uhrig GER GER 4:32.21200m - 21.01 - (21.0)
600m - 54.52 - (33.5)
1000m - 1:28.49 - (33.9)
1400m - 2:03.63 - (35.1)
1800m - 2:39.04 - (35.4)
2200m - 3:15.66 - (36.6)
2600m - 3:53.42 - (37.7)
3000m - 4:32.21 - (38.7)
4.32 70
4 18 Eliska  Drimalova CZE CZE 4:35.33200m - 21.70 - (21.6)
600m - 56.88 - (35.1)
1000m - 1:32.14 - (35.2)
1400m - 2:08.25 - (36.1)
1800m - 2:44.62 - (36.3)
2200m - 3:21.60 - (36.9)
2600m - 3:58.37 - (36.7)
3000m - 4:35.34 - (36.9)
7.46 60
5 59 Andżelika  Wójcik POL POL 4:37.45200m - 21.24 - (21.2)
600m - 55.22 - (33.9)
1000m - 1:30.45 - (35.2)
1400m - 2:06.39 - (35.9)
1800m - 2:43.33 - (36.9)
2200m - 3:21.10 - (37.7)
2600m - 3:59.31 - (38.2)
3000m - 4:37.45 - (38.1)
9.57 50
6 39 Gloria  Malfatti ITA ITA 4:38.42200m - 22.00 - (22.0)
600m - 56.65 - (34.6)
1000m - 1:32.18 - (35.5)
1400m - 2:08.45 - (36.2)
1800m - 2:45.07 - (36.6)
2200m - 3:22.24 - (37.1)
2600m - 4:00.09 - (37.8)
3000m - 4:38.42 - (38.3)
10.54 44
7 66 Marina  Salnikova RUS RUS 4:38.79200m - 21.29 - (21.2)
600m - 55.08 - (33.7)
1000m - 1:29.95 - (34.8)
1400m - 2:05.46 - (35.5)
1800m - 2:41.61 - (36.1)
2200m - 3:19.01 - (37.3)
2600m - 3:58.04 - (39.0)
3000m - 4:38.79 - (40.7)
10.91 40
8 72 Ramona  Härdi SUI SUI 4:42.10200m - 21.56 - (21.5)
600m - 56.54 - (34.9)
1000m - 1:32.35 - (35.8)
1400m - 2:08.84 - (36.4)
1800m - 2:46.37 - (37.5)
2200m - 3:25.04 - (38.6)
2600m - 4:03.48 - (38.4)
3000m - 4:42.10 - (38.6)
14.22 36
9 38 Giulia  Lollobrigida ITA ITA 4:44.41200m - 21.72 - (21.7)
600m - 55.67 - (33.9)
1000m - 1:30.80 - (35.1)
1400m - 2:07.32 - (36.5)
1800m - 2:45.49 - (38.1)
2200m - 3:24.48 - (38.9)
2600m - 4:04.63 - (40.1)
3000m - 4:44.41 - (39.7)
16.53 32